Date String (YYYY-MM-DD hh:mm:ss) UTC,Instrument flags,Ambient pressure (hPa),Sample flow (lpm),Bypass flow (lpm),Sample temperature (°C),Ambient temperature (°C),ASC tube jacket temperature (°C),LED temperature (°C),Box temperature (°C),Sample RH (%),Span deviation,Mass concentration (μg/m³),Mass concentration (μg/m³),Mass concentration (μg/m³)
DateTimeUTC,F1_M11,P_M11,Q1_M11,Q2_M11,T1_M11,T2_M11,T3_M11,T4_M11,T5_M11,U1_M11,ZSPAN_M11,X0_M11,X2_M11,X1_M11
2022-10-19 22:00:00,,0830.4,5.00,0.00,29.5,27.5,00.0,38.3,31.2,08.7,0000.0,0011.36,0002.17,0001.08
2022-10-19 22:01:00,,0830.4,5.00,0.00,29.5,27.7,00.0,38.3,31.3,08.6,0000.0,0011.59,0002.15,0001.09
2022-10-19 22:02:00,,0830.4,4.99,0.00,29.5,27.9,00.0,38.3,31.4,08.4,0000.0,0011.82,0002.18,0001.09
2022-10-19 22:03:00,,0830.4,5.02,0.00,29.6,28.1,00.0,38.3,31.4,08.4,0000.0,0012.15,0002.24,0001.09
2022-10-19 22:04:00,,0830.4,5.00,0.00,29.6,28.3,00.0,38.3,31.5,08.4,0000.0,0012.13,0002.28,0001.11
2022-10-19 22:05:00,,0830.4,5.00,0.00,29.6,28.4,00.0,38.3,31.6,08.4,0000.0,0011.33,0002.32,0001.11
2022-10-19 22:06:00,,0830.3,4.99,0.00,29.7,28.5,00.0,38.4,31.6,08.4,0000.0,0011.31,0002.35,0001.11
2022-10-19 22:07:00,,0830.4,5.01,0.00,29.7,28.6,00.0,38.4,31.7,08.4,0000.0,0010.06,0002.42,0001.11
2022-10-19 22:08:00,,0830.4,4.99,0.00,29.7,28.0,00.0,38.4,31.7,08.5,0000.0,0009.71,0002.39,0001.10
2022-10-19 22:09:00,,0830.4,5.00,0.00,29.7,26.5,00.0,38.4,31.5,08.6,0000.0,0010.02,0002.38,0001.11
2022-10-19 22:10:00,,0830.5,5.00,0.00,29.7,26.0,00.0,38.3,31.4,08.8,0000.0,0010.22,0002.37,0001.11
2022-10-19 22:11:00,,0830.4,5.00,0.00,29.6,26.3,00.0,38.3,31.3,08.7,0000.0,0009.91,0002.33,0001.09
2022-10-19 22:12:00,,0830.4,5.01,0.00,29.5,26.6,00.0,38.2,31.1,08.6,0000.0,0010.56,0002.29,0001.10
2022-10-19 22:13:00,,0830.4,4.99,0.00,29.5,27.0,00.0,38.2,31.1,08.8,0000.0,0010.46,0002.26,0001.10
2022-10-19 22:14:00,,0830.4,5.00,0.00,29.5,27.3,00.0,38.2,31.2,08.8,0000.0,0010.20,0002.29,0001.11
2022-10-19 22:15:00,,0830.4,4.99,0.00,29.5,27.6,00.0,38.2,31.3,09.0,0000.0,0010.17,0002.33,0001.11
2022-10-19 22:16:00,,0830.4,5.02,0.00,29.5,27.8,00.0,38.2,31.3,08.6,0000.0,0010.38,0002.32,0001.11
2022-10-19 22:17:00,,0830.5,4.99,0.00,29.5,28.0,00.0,38.3,31.4,08.6,0000.0,0010.57,0002.34,0001.11
2022-10-19 22:18:00,,0830.5,4.99,0.00,29.6,28.2,00.0,38.3,31.5,08.5,0000.0,0010.80,0002.36,0001.12
2022-10-19 22:19:00,,0830.4,5.02,0.00,29.6,28.4,00.0,38.3,31.5,08.5,0000.0,0011.15,0002.42,0001.12
2022-10-19 22:20:00,,0830.4,5.00,0.00,29.6,28.5,00.0,38.3,31.5,08.5,0000.0,0011.48,0002.47,0001.12
2022-10-19 22:21:00,,0830.4,4.99,0.00,29.7,28.6,00.0,38.3,31.6,08.5,0000.0,0011.31,0002.47,0001.12
2022-10-19 22:22:00,,0830.5,5.02,0.00,29.7,28.4,00.0,38.4,31.7,08.5,0000.0,0011.02,0002.49,0001.12
2022-10-19 22:23:00,,0830.4,5.00,0.00,29.7,27.3,00.0,38.4,31.6,08.6,0000.0,0009.97,0002.53,0001.11
2022-10-19 22:24:00,,0830.4,4.99,0.00,29.7,26.9,00.0,38.3,31.6,08.5,0000.0,0009.61,0002.56,0001.11
2022-10-19 22:25:00,,0830.4,5.00,0.00,29.7,27.1,00.0,38.3,31.5,08.5,0000.0,0009.68,0002.47,0001.10
2022-10-19 22:26:00,,0830.4,5.02,0.00,29.6,27.3,00.0,38.3,31.4,08.6,0000.0,0010.87,0002.39,0001.09
2022-10-19 22:27:00,,0830.4,5.00,0.00,29.6,27.6,00.0,38.3,31.4,08.6,0000.0,0011.20,0002.34,0001.08
2022-10-19 22:28:00,,0830.4,4.98,0.00,29.6,27.9,00.0,38.4,31.5,08.4,0000.0,0010.41,0002.27,0001.08
2022-10-19 22:29:00,,0830.5,5.00,0.00,29.6,28.1,00.0,38.4,31.5,08.4,0000.0,0009.92,0002.24,0001.06
2022-10-19 22:30:00,,0830.4,5.01,0.00,29.7,28.2,00.0,38.4,31.5,08.4,0000.0,0009.57,0002.24,0001.06
2022-10-19 22:31:00,,0830.4,5.00,0.00,29.7,28.4,00.0,38.4,31.6,08.5,0000.0,0008.66,0002.26,0001.06
2022-10-19 22:32:00,,0830.4,5.00,0.00,29.7,28.6,00.0,38.4,31.7,08.3,0000.0,0008.41,0002.27,0001.04
2022-10-19 22:33:00,,0830.4,5.01,0.00,29.8,28.6,00.0,38.4,31.8,08.5,0000.0,0008.27,0002.23,0001.06
2022-10-19 22:34:00,,0830.4,4.99,0.00,29.8,27.4,00.0,38.4,31.7,08.5,0000.0,0008.36,0002.23,0001.06
2022-10-19 22:35:00,,0830.4,5.01,0.00,29.7,26.2,00.0,38.4,31.5,08.5,0000.0,0009.09,0002.22,0001.07
2022-10-19 22:36:00,,0830.3,4.99,0.00,29.7,26.2,00.0,38.3,31.4,08.7,0000.0,0010.60,0002.31,0001.08
2022-10-19 22:37:00,,0830.4,5.02,0.00,29.6,26.5,00.0,38.3,31.2,08.7,0000.0,0009.65,0002.41,0001.08
2022-10-19 22:38:00,,0830.3,5.00,0.00,29.5,26.8,00.0,38.3,31.2,08.8,0000.0,0009.75,0002.49,0001.08
2022-10-19 22:39:00,,0830.3,5.00,0.00,29.5,27.1,00.0,38.3,31.2,08.8,0000.0,0010.26,0002.55,0001.08
2022-10-19 22:40:00,,0830.4,5.00,0.00,29.5,27.4,00.0,38.3,31.2,08.6,0000.0,0011.38,0002.57,0001.09
2022-10-19 22:41:00,,0830.3,5.00,0.00,29.5,27.7,00.0,38.3,31.3,08.5,0000.0,0011.99,0002.53,0001.08
2022-10-19 22:42:00,,0830.3,5.00,0.00,29.5,28.0,00.0,38.3,31.4,08.6,0000.0,0012.57,0002.51,0001.07
2022-10-19 22:43:00,,0830.3,5.00,0.00,29.6,28.1,00.0,38.3,31.5,08.6,0000.0,0013.16,0002.49,0001.07
2022-10-19 22:44:00,,0830.3,5.00,0.00,29.6,28.3,00.0,38.3,31.5,08.6,0000.0,0013.28,0002.53,0001.07
2022-10-19 22:45:00,,0830.3,4.99,0.00,29.6,28.4,00.0,38.3,31.5,08.6,0000.0,0013.81,0002.55,0001.06
2022-10-19 22:46:00,,0830.3,5.00,0.00,29.7,28.5,00.0,38.4,31.6,08.6,0000.0,0013.53,0002.55,0001.05
2022-10-19 22:47:00,,0830.3,4.99,0.00,29.7,28.4,00.0,38.4,31.7,08.7,0000.0,0012.41,0002.64,0001.05
2022-10-19 22:48:00,,0830.3,5.01,0.00,29.7,27.1,00.0,38.4,31.6,08.7,0000.0,0011.90,0002.60,0001.05
2022-10-19 22:49:00,,0830.3,5.01,0.00,29.7,26.7,00.0,38.3,31.6,08.6,0000.0,0011.56,0002.54,0001.05
2022-10-19 22:50:00,,0830.2,4.98,0.00,29.7,26.9,00.0,38.3,31.4,08.6,0000.0,0011.27,0002.50,0001.05
2022-10-19 22:51:00,,0830.3,5.01,0.00,29.6,27.2,00.0,38.3,31.3,08.7,0000.0,0011.40,0002.55,0001.06
2022-10-19 22:52:00,,0830.3,5.00,0.00,29.6,27.5,00.0,38.3,31.4,08.8,0000.0,0011.00,0002.58,0001.07
2022-10-19 22:53:00,,0830.3,5.00,0.00,29.6,27.7,00.0,38.3,31.4,08.9,0000.0,0010.52,0002.54,0001.08
2022-10-19 22:54:00,,0830.3,4.99,0.00,29.6,28.0,00.0,38.3,31.5,08.9,0000.0,0010.73,0002.48,0001.08
2022-10-19 22:55:00,,0830.3,4.99,0.00,29.6,28.1,00.0,38.4,31.5,08.9,0000.0,0011.09,0002.46,0001.09
2022-10-19 22:56:00,,0830.3,5.01,0.00,29.7,28.3,00.0,38.4,31.6,09.0,0000.0,0010.85,0002.43,0001.11
2022-10-19 22:57:00,,0830.3,5.00,0.00,29.7,28.5,00.0,38.4,31.7,09.0,0000.0,0011.60,0002.47,0001.13
2022-10-19 22:58:00,,0830.3,4.99,0.00,29.7,28.5,00.0,38.4,31.7,09.1,0000.0,0012.83,0002.40,0001.14
2022-10-19 22:59:00,,0830.3,5.01,0.00,29.8,27.4,00.0,38.4,31.6,09.0,0000.0,0013.56,0002.41,0001.15
